Tracking 28790 objects as of 18-Apr-2024
HD Live streaming from Space Station
objects crossing your sky now

COSMOS 839 DEB

Track COSMOS 839 DEB now!
10-day predictions


NORAD ID: 10446
Int'l Code: 1976-067X
Perigee: 1,105.7 km
Apogee: 2,121.5 km
Inclination: 65.9 °
Period: 118.3 minutes
Semi major axis: 7984 km
RCS: 0.0637 m2 (small)
Launch date: July 8, 1976
Source: Commonwealth of Independent States (former USSR) (CIS)
Launch site: PLESETSK MISSILE AND SPACE COMPLEX (PKMTR)

Note: This is SATELLITE DEBRIS
Your satellite tracking list
Your tracking list is empty




NASA's NSSDC Master Catalog

Two Line Element Set (TLE):
1 10446U 76067X   24108.89586309  .00000154  00000-0  11009-2 0  9997
2 10446  65.8848 350.8076 0636088  10.5405  67.1294 12.16804767123244
Source of the keplerian elements: AFSPC